Miscellaneous Local Product
Issued by NWS Hastings, NE

Home | Current Version | Previous Version | Text Only | Print | Product List | Glossary On
Versions: 1 2 3 4 5 6 7 8 9 10 11 12 13 14 15 16 17 18 19 20 21 22 23 24 25 26 27 28 29 30 31 32 33 34 35 36 37 38 39 40 41 42 43 44 45 46 47 48 49 50
000
AXUS43 KGID 280802
MISGRI

GID CWA HOURLY WEATHER ROUNDUP
NATIONAL WEATHER SERVICE HASTINGS NE
300 AM CDT SAT MAY 28 2016

NOTE: "FAIR" INDICATES FEW OR NO CLOUDS BELOW 12,000 FEET WITH NO
SIGNIFICANT WEATHER AND/OR OBSTRUCTIONS TO VISIBILITY.

...SOUTH CENTRAL NEBRASKA...

CITY           SKY/WX    TMP DP  RH WIND       PRES   REMARKS
GRAND ISLAND   LGT RAIN  57  55  93 SW9       29.78S
HASTINGS       CLOUDY    57  52  83 W7        29.77F
KEARNEY        CLOUDY    57  54  88 NW5       29.79F
ORD            LGT RAIN  57  55  93 SW10      29.77S
YORK           MOCLDY    57  55  94 W12       29.75R
AURORA         CLOUDY    58  57  96 W9        29.77R
LEXINGTON      LGT RAIN  55  53  93 CALM      29.80R
HOLDREGE       LGT RAIN  56  54  93 CALM      29.80F
HEBRON         RAIN      58  56  94 CALM      29.76R

...NEBRASKA PANHANDLE...

CITY           SKY/WX    TMP DP  RH WIND       PRES   REMARKS
CHADRON        PTCLDY    44  42  93 W6        29.87F
ALLIANCE       CLOUDY    43  42  97 W6        29.88F
SCOTTSBLUFF    CLEAR     44  41  89 CALM      29.90F
SIDNEY         CLEAR     42  41  96 NW8       29.91F

...WESTERN AND NORTH CENTRAL NEBRASKA...

CITY           SKY/WX    TMP DP  RH WIND       PRES   REMARKS
VALENTINE      MOCLDY    53  50  89 W10       29.82S
AINSWORTH      MOCLDY    55  53  91 N5        29.81S
ONEILL         RAIN      58  56  95 W5        29.78R
BROKEN BOW     LGT RAIN  56  54  93 SW5       29.80S
IMPERIAL       CLEAR     50  47  89 NW12      29.86R
NORTH PLATTE   MOCLDY    54  52  93 NE5       29.83S
MCCOOK         LGT RAIN  55  53  93 N6        29.82R FOG

...EASTERN NEBRASKA...

CITY           SKY/WX    TMP DP  RH WIND       PRES   REMARKS
NORFOLK        CLOUDY    59  56  89 NW10      29.69R
SO SIOUX CITY  CLOUDY    64  61  90 NE6       29.68F
TEKAMAH        PTCLDY    61  58  90 SE9       29.68F
COLUMBUS       CLOUDY    57  52  82 W8        29.72S
ALBION         LGT RAIN  57  55  92 NW6       29.74S
OMAHA EPPLEY   CLOUDY    62  59  90 SE8       29.69F
OFFUTT AFB     LGT RAIN  61  61 100 E8        29.68F
MILLARD        CLOUDY    61  59  93 SE3       29.70F
LINCOLN        CLOUDY    59  57  93 W5        29.73R
NEBRASKA CITY  MOCLDY    60  60 100 CALM      29.71F
FALLS CITY     PTCLDY    60  59  96 S6        29.72R

...NORTHERN KANSAS...

CITY           SKY/WX    TMP DP  RH WIND       PRES   REMARKS
GOODLAND       CLEAR     47  45  93 W12       29.88R
HILL CITY      MOCLDY    57  53  86 NW13      29.79F
NORTON         DRIZZLE   55  52  88 CALM      29.80S
PHILLIPSBURG   DRIZZLE   55  55 100 CALM      29.77F
SMITH CENTER   RAIN      55  54  94 NW6       29.78R
BELOIT         MOCLDY    57  55  94 NW8       29.75R
HAYS           CLOUDY    55  48  76 SW6       29.78R
RUSSELL        CLOUDY    56  55  97 NW7       29.76R
CONCORDIA      CLOUDY    58  56  93 E5        29.72S
SALINA         CLOUDY    61  58  90 NE5       29.73R
TOPEKA         MOCLDY    60  58  92 CALM      29.74S



USA.gov is the U.S. government's official web portal to all federal, state and local government web resources and services.